• In Lithuania
  • List of Countries
  • For 7 days
  • Water Temperature
  • Satellite Maps
  • Weather Map
  • Weather Widgets
  • user-avatar
    Login

    Hourly Weather Kambulat

    Today, 22 August, Wednesday

    Time Temperature Precipitation Wind Pressure Humidity
    00:00 +21°C° 0 mm 4 mps 743 mmHg 61%
    01:00 +21°C° 0 mm 4 mps 743 mmHg 66%
    02:00 +20°C° 0 mm 3 mps 743 mmHg 70%
    03:00 +19°C° 0 mm 3 mps 743 mmHg 75%
    04:00 +19°C° 0 mm 3 mps 743 mmHg 77%
    05:00 +19°C° 0 mm 2 mps 743 mmHg 80%
    06:00 +19°C° 0 mm 2 mps 743 mmHg 82%
    07:00 +21°C° 0 mm 2 mps 743 mmHg 74%
    08:00 +24°C° 0 mm 2 mps 743 mmHg 66%
    09:00 +26°C° 0 mm 2 mps 743 mmHg 58%
    10:00 +28°C° 0 mm 2 mps 743 mmHg 51%
    11:00 +29°C° 0 mm 1 mps 743 mmHg 44%
    12:00 +31°C° 0 mm 1 mps 743 mmHg 37%
    13:00 +32°C° 0 mm 1 mps 743 mmHg 34%
    14:00 +32°C° 0 mm 2 mps 742 mmHg 31%
    15:00 +34°C° 0 mm 2 mps 742 mmHg 28%
    16:00 +32°C° 0 mm 2 mps 742 mmHg 29%
    17:00 +32°C° 0 mm 2 mps 742 mmHg 30%
    18:00 +32°C° 0 mm 2 mps 742 mmHg 31%
    19:00 +30°C° 0 mm 2 mps 742 mmHg 34%
    20:00 +28°C° 0 mm 2 mps 743 mmHg 36%
    21:00 +27°C° 0 mm 2 mps 743 mmHg 38%
    22:00 +26°C° 0 mm 2 mps 743 mmHg 39%
    23:00 +26°C° 0 mm 1 mps 743 mmHg 40%

    Tomorrow, 23 August, Thursday

    Time Temperature Precipitation Wind Pressure Humidity
    00:00 +25°C° 0 mm 1 mps 744 mmHg 41%
    01:00 +25°C° 0 mm 2 mps 744 mmHg 44%
    02:00 +24°C° 0 mm 2 mps 744 mmHg 48%
    03:00 +22°C° 0 mm 3 mps 744 mmHg 51%
    04:00 +21°C° 0 mm 3 mps 745 mmHg 56%
    05:00 +21°C° 0 mm 3 mps 745 mmHg 60%
    06:00 +20°C° 0 mm 3 mps 745 mmHg 65%
    07:00 +22°C° 0 mm 4 mps 746 mmHg 59%
    08:00 +23°C° 0 mm 4 mps 746 mmHg 53%
    09:00 +26°C° 0 mm 5 mps 746 mmHg 47%
    10:00 +27°C° 0 mm 5 mps 746 mmHg 42%
    11:00 +28°C° 0 mm 5 mps 746 mmHg 38%
    12:00 +30°C° 0 mm 5 mps 746 mmHg 34%
    13:00 +30°C° 0 mm 5 mps 746 mmHg 32%
    14:00 +30°C° 0 mm 5 mps 746 mmHg 31%
    15:00 +32°C° 0 mm 5 mps 746 mmHg 29%
    16:00 +30°C° 0 mm 5 mps 746 mmHg 29%
    17:00 +29°C° 0 mm 5 mps 745 mmHg 29%
    18:00 +29°C° 0 mm 5 mps 745 mmHg 29%
    19:00 +27°C° 0 mm 5 mps 746 mmHg 28%
    20:00 +26°C° 0 mm 5 mps 746 mmHg 26%
    21:00 +23°C° 0 mm 5 mps 746 mmHg 24%
    22:00 +23°C° 0 mm 5 mps 746 mmHg 24%
    23:00 +22°C° 0 mm 5 mps 746 mmHg 24%

    Day after tomorrow, 24 August, Friday

    Time Temperature Precipitation Wind Pressure Humidity
    00:00 +22°C° 0 mm 5 mps 746 mmHg 24%
    01:00 +21°C° 0 mm 5 mps 746 mmHg 25%
    02:00 +21°C° 0 mm 5 mps 746 mmHg 26%
    03:00 +21°C° 0 mm 5 mps 746 mmHg 28%
    04:00 +20°C° 0 mm 5 mps 746 mmHg 31%
    05:00 +20°C° 0 mm 5 mps 746 mmHg 34%
    06:00 +20°C° 0 mm 6 mps 746 mmHg 37%
    07:00 +21°C° 0 mm 6 mps 746 mmHg 36%
    08:00 +23°C° 0 mm 7 mps 746 mmHg 34%
    09:00 +26°C° 0 mm 8 mps 746 mmHg 33%
    10:00 +27°C° 0 mm 8 mps 746 mmHg 31%
    11:00 +28°C° 0 mm 8 mps 745 mmHg 29%
    12:00 +29°C° 0 mm 8 mps 745 mmHg 26%
    13:00 +29°C° 0 mm 8 mps 745 mmHg 26%
    14:00 +31°C° 0 mm 8 mps 744 mmHg 25%
    15:00 +31°C° 0 mm 8 mps 744 mmHg 24%
    16:00 +30°C° 0 mm 7 mps 744 mmHg 25%
    17:00 +29°C° 0 mm 7 mps 744 mmHg 26%
    18:00 +28°C° 0 mm 6 mps 744 mmHg 27%
    19:00 +27°C° 0 mm 6 mps 744 mmHg 30%
    20:00 +26°C° 0 mm 6 mps 744 mmHg 33%
    21:00 +23°C° 0 mm 6 mps 744 mmHg 36%
    22:00 +22°C° 0 mm 6 mps 744 mmHg 41%
    23:00 +22°C° 0 mm 6 mps 744 mmHg 46%

    25 August, Saturday

    Time Temperature Precipitation Wind Pressure Humidity
    00:00 +21°C° 0 mm 6 mps 744 mmHg 50%
    01:00 +20°C° 0 mm 6 mps 744 mmHg 53%
    02:00 +20°C° 0 mm 5 mps 744 mmHg 55%
    03:00 +19°C° 0 mm 5 mps 744 mmHg 58%
    04:00 +19°C° 0 mm 5 mps 744 mmHg 58%
    05:00 +19°C° 0 mm 5 mps 744 mmHg 59%
    06:00 +17°C° 0 mm 6 mps 744 mmHg 59%
    07:00 +20°C° 0 mm 6 mps 744 mmHg 56%
    08:00 +22°C° 0 mm 7 mps 744 mmHg 53%
    09:00 +23°C° 0 mm 7 mps 744 mmHg 50%
    10:00 +26°C° 0 mm 7 mps 744 mmHg 47%
    11:00 +27°C° 0 mm 7 mps 744 mmHg 44%
    12:00 +28°C° 0 mm 7 mps 744 mmHg 41%
    13:00 +29°C° 0 mm 7 mps 743 mmHg 39%
    14:00 +30°C° 0 mm 7 mps 743 mmHg 36%
    15:00 +30°C° 0 mm 7 mps 743 mmHg 34%
    16:00 +30°C° 0 mm 7 mps 743 mmHg 35%
    17:00 +29°C° 0 mm 7 mps 743 mmHg 35%
    18:00 +29°C° 0 mm 7 mps 742 mmHg 36%
    19:00 +28°C° 0 mm 7 mps 743 mmHg 37%
    20:00 +26°C° 0 mm 7 mps 743 mmHg 38%
    21:00 +24°C° 0 mm 7 mps 743 mmHg 39%
    22:00 +23°C° 0 mm 7 mps 743 mmHg 40%
    23:00 +22°C° 0 mm 7 mps 743 mmHg 42%

    26 August, Sunday

    Time Temperature Precipitation Wind Pressure Humidity
    00:00 +22°C° 0 mm 6 mps 743 mmHg 43%
    01:00 +21°C° 0 mm 6 mps 743 mmHg 45%
    02:00 +21°C° 0 mm 6 mps 743 mmHg 47%
    03:00 +20°C° 0 mm 6 mps 743 mmHg 49%
    04:00 +20°C° 0 mm 6 mps 743 mmHg 52%
    05:00 +20°C° 0 mm 6 mps 743 mmHg 55%
    06:00 +19°C° 0 mm 6 mps 743 mmHg 57%
    07:00 +21°C° 0 mm 7 mps 743 mmHg 52%
    08:00 +23°C° 0 mm 8 mps 743 mmHg 47%
    09:00 +26°C° 0 mm 9 mps 743 mmHg 42%
    10:00 +28°C° 0 mm 9 mps 742 mmHg 38%
    11:00 +29°C° 0 mm 9 mps 742 mmHg 35%
    12:00 +32°C° 0 mm 10 mps 742 mmHg 32%
    13:00 +32°C° 0 mm 9 mps 741 mmHg 31%
    14:00 +33°C° 0 mm 9 mps 741 mmHg 30%
    15:00 +33°C° 0 mm 9 mps 741 mmHg 29%
    16:00 +32°C° 0 mm 9 mps 741 mmHg 30%
    17:00 +31°C° 0 mm 8 mps 741 mmHg 32%
    18:00 +29°C° 0 mm 8 mps 741 mmHg 34%
    19:00 +28°C° 0 mm 8 mps 741 mmHg 37%
    20:00 +27°C° 0 mm 7 mps 741 mmHg 40%
    21:00 +24°C° 0 mm 7 mps 741 mmHg 43%
    22:00 +24°C° 0 mm 7 mps 741 mmHg 47%
    23:00 +23°C° 0 mm 7 mps 741 mmHg 51%

    27 August, Monday

    Time Temperature Precipitation Wind Pressure Humidity
    00:00 +22°C° 0 mm 7 mps 741 mmHg 55%
    01:00 +22°C° 0 mm 6 mps 741 mmHg 57%
    02:00 +21°C° 0 mm 6 mps 741 mmHg 58%
    03:00 +21°C° 0 mm 6 mps 741 mmHg 60%
    04:00 +20°C° 0 mm 6 mps 741 mmHg 60%
    05:00 +20°C° 0 mm 6 mps 741 mmHg 59%
    06:00 +20°C° 0 mm 6 mps 741 mmHg 59%
    07:00 +22°C° 0 mm 6 mps 741 mmHg 55%
    08:00 +24°C° 0 mm 7 mps 741 mmHg 50%
    09:00 +27°C° 0 mm 8 mps 741 mmHg 46%
    10:00 +28°C° 0 mm 8 mps 740 mmHg 41%
    11:00 +31°C° 0 mm 8 mps 740 mmHg 37%
    12:00 +33°C° 0 mm 8 mps 740 mmHg 33%
    13:00 +34°C° 0 mm 8 mps 740 mmHg 32%
    14:00 +34°C° 0 mm 8 mps 740 mmHg 31%
    15:00 +35°C° 0 mm 8 mps 739 mmHg 30%
    16:00 +34°C° 0 mm 7 mps 740 mmHg 31%
    17:00 +33°C° 0 mm 7 mps 740 mmHg 33%
    18:00 +33°C° 0 mm 6 mps 740 mmHg 35%
    19:00 +30°C° 0 mm 6 mps 740 mmHg 37%
    20:00 +29°C° 0 mm 7 mps 740 mmHg 39%
    21:00 +27°C° 0 mm 7 mps 740 mmHg 41%
    22:00 +27°C° 0 mm 7 mps 740 mmHg 44%
    23:00 +26°C° 0 mm 7 mps 740 mmHg 48%
    Show more